Regional Weather Roundup
Issued by NWS

Home | Current Version | Previous Version | Text Only | Print | Product List | Glossary Off
Versions: 1 2 3 4 5 6 7 8 9 10 11 12 13 14 15 16 17 18 19 20 21 22 23 24 25 26 27 28 29 30 31 32 33 34 35 36 37 38 39 40 41 42 43 44 45 46 47 48 49 50

497
ASUS45 KCYS 290810
RWRWY

WYOMING REGIONAL WEATHER ROUNDUP
NATIONAL WEATHER SERVICE CHEYENNE WY
200 AM MDT SAT APR 29 2017

NOTE:  "FAIR" INDICATES FEW OR NO CLOUDS BELOW 12,000 FEET
WITH NO SIGNIFICANT WEATHER AND/OR OBSTRUCTIONS TO VISIBILITY.

WYZ001-290900-
YELLOWSTONE NATIONAL PARK

CITY           SKY/WX    TMP DP  RH WIND       PRES   REMARKS
LK YELLOWSTONE   N/A     18  16  92 CALM      30.15R
W YELLOWSTONE  NOT AVBL

$$
WYZ002>013-054>058-071-098>099-290900-
NORTHERN WYOMING

CITY           SKY/WX    TMP DP  RH WIND       PRES   REMARKS
JACKSON        FAIR      30  25  80 N16       30.11S WCI  19
CODY           CLOUDY    34  28  79 CALM      30.19S
GREYBULL       CLOUDY    37  32  82 W5        30.18F WCI  33
WORLAND        FAIR      30  30 100 SW3       30.18S
SHERIDAN       FAIR      31  27  85 CALM      30.19S
BUFFALO        FAIR      32  18  56 W7        30.17S WCI  26
GILLETTE       FAIR      20  18  92 CALM      30.16F
HULETT         FAIR      32  28  86 CALM      30.17F
NEWCASTLE      FAIR      32  27  80 E12       30.20R WCI  23

$$
WYZ014>020-022>026-101>103-290900-
CENTRAL WYOMING

CITY           SKY/WX    TMP DP  RH WIND       PRES   REMARKS
BIG PINEY      FAIR      20  18  92 W6        30.12R WCI  12
PINEDALE       PTSUNNY   27  21  80 W6        30.11R WCI  20
DUBOIS         FLURRIES  23  23 100 SE9       30.12S WCI  13
LANDER         CLOUDY    28  25  88 N6        30.17R WCI  22
RIVERTON       CLOUDY    27  24  89 CALM      30.17S
CASPER         CLOUDY    29  27  92 N6        30.17R WCI  23
DOUGLAS        CLOUDY    25  24  96 CALM      30.19R

$$
WYZ021-027>030-104>119-290900-
SOUTHERN WYOMING

CITY           SKY/WX    TMP DP  RH WIND       PRES   REMARKS
EVANSTON       CLOUDY    26  23  88 E10       30.07S WCI  16
FORT BRIDGER   CLOUDY    27  27 100 E10       30.12R WCI  17
ROCK SPRINGS   CLOUDY    28  20  71 NE15      30.09R WCI  16
DIXON            N/A     31  17  54 E16       30.01R WCI  20
RAWLINS        CLOUDY    26  20  77 NE18G26   30.06S WCI  13
SARATOGA       PTSUNNY   27  18  69 E10       30.05R WCI  17
LARAMIE        CLOUDY    23  21  92 E17       30.07R WCI   9
CHEYENNE       LGT SNOW  27  25  92 NE7       30.10F FOG     WCI  19
TORRINGTON     CLOUDY    32  29  88 NW6       30.16F WCI  26
PINE BLUFFS    CLOUDY    30  30 100 N8        30.12F WCI  23

$$




USA.gov is the U.S. government's official web portal to all federal, state and local government web resources and services.